CPA420 RCTP-RKSS

Flight info

Callsign CPA420
Flight time 2h 4m
Altitude 37000
Route PIANO1A PIANO L3 SALMI Y743 BOLUT Y741 ATOTI Y722 OLMEN OLMEN2U
Aircraft L101/H-SDFGHIRWXY/S

Departure

Time 2026-05-04 18:18
Airport Taiwan Taoyuan International Airport (RCTP)

Arrival

Time 2026-05-04 20:22
Airport Gimpo International Airport (RKSS)
Time Latitude Longitude Altitude Speed Heading
2026-05-04 17:51 25.07817 121.23735 106 ft 0 kts 319°
2026-05-04 18:02 25.07816 121.23736 106 ft 1 kts 319°
2026-05-04 18:03 25.07796 121.23755 105 ft 4 kts 319°
2026-05-04 18:03 25.07776 121.23775 102 ft 4 kts 319°
2026-05-04 18:03 25.07760 121.23790 104 ft 4 kts 308°
2026-05-04 18:03 25.07749 121.23815 106 ft 4 kts 265°
2026-05-04 18:04 25.07758 121.23838 106 ft 4 kts 228°
2026-05-04 18:04 25.07769 121.23850 103 ft 0 kts 229°
2026-05-04 18:09 25.07767 121.23847 106 ft 2 kts 229°
2026-05-04 18:10 25.07751 121.23827 105 ft 5 kts 229°
2026-05-04 18:10 25.07720 121.23788 105 ft 8 kts 229°
2026-05-04 18:10 25.07674 121.23730 105 ft 12 kts 229°
2026-05-04 18:10 25.07615 121.23653 104 ft 15 kts 229°
2026-05-04 18:11 25.07545 121.23566 105 ft 15 kts 227°
2026-05-04 18:11 25.07481 121.23480 106 ft 14 kts 227°
2026-05-04 18:11 25.07411 121.23393 106 ft 16 kts 230°
2026-05-04 18:11 25.07330 121.23288 105 ft 20 kts 230°
2026-05-04 18:12 25.07263 121.23200 106 ft 9 kts 230°
2026-05-04 18:12 25.07206 121.23181 106 ft 9 kts 151°
2026-05-04 18:12 25.07149 121.23215 105 ft 10 kts 187°
2026-05-04 18:12 25.07096 121.23164 105 ft 11 kts 228°
2026-05-04 18:13 25.07041 121.23095 105 ft 14 kts 229°
2026-05-04 18:13 25.06969 121.23004 105 ft 17 kts 229°
2026-05-04 18:13 25.06779 121.22769 105 ft 23 kts 228°
2026-05-04 18:14 25.06669 121.22626 104 ft 26 kts 230°
2026-05-04 18:14 25.06546 121.22471 104 ft 28 kts 229°
2026-05-04 18:14 25.06418 121.22308 105 ft 19 kts 228°
2026-05-04 18:15 25.06200 121.22255 104 ft 13 kts 148°
2026-05-04 18:15 25.06138 121.22313 103 ft 0 kts 139°
2026-05-04 18:16 25.06137 121.22314 103 ft 1 kts 139°
2026-05-04 18:16 25.06119 121.22331 103 ft 6 kts 139°
2026-05-04 18:16 25.06098 121.22366 101 ft 6 kts 99°
2026-05-04 18:17 25.06150 121.22441 101 ft 0 kts 47°
2026-05-04 18:17 25.06314 121.22651 100 ft 80 kts 50°
2026-05-04 18:18 25.06844 121.23325 102 ft 149 kts 50°
2026-05-04 18:18 25.07571 121.24134 985 ft 135 kts 46°
2026-05-04 18:18 25.08344 121.24721 1530 ft 148 kts 42°
2026-05-04 18:18 25.09312 121.25431 1958 ft 185 kts 39°
2026-05-04 18:19 25.11631 121.27024 2863 ft 209 kts 27°
2026-05-04 18:19 25.13171 121.27430 2890 ft 238 kts
2026-05-04 18:19 25.14803 121.27313 3633 ft 227 kts 348°
2026-05-04 18:20 25.16347 121.26962 3855 ft 223 kts 345°
2026-05-04 18:20 25.17815 121.26556 3560 ft 223 kts 343°
2026-05-04 18:20 25.19384 121.26050 3289 ft 257 kts 341°
2026-05-04 18:20 25.21028 121.25464 3719 ft 241 kts 340°
2026-05-04 18:21 25.22729 121.24966 3773 ft 259 kts 348°
2026-05-04 18:21 25.24538 121.24805 3904 ft 260 kts 356°
2026-05-04 18:21 25.26361 121.24768 4154 ft 263 kts 356°
2026-05-04 18:21 25.28193 121.24775 4392 ft 264 kts 356°
2026-05-04 18:22 25.30035 121.24814 4582 ft 266 kts 357°
2026-05-04 18:22 25.31893 121.24874 4770 ft 275 kts
2026-05-04 18:22 25.33903 121.24883 5149 ft 295 kts 359°
2026-05-04 18:22 25.35956 121.24851 6083 ft 290 kts 356°
2026-05-04 18:23 25.37940 121.25034 7060 ft 290 kts 12°
2026-05-04 18:23 25.39835 121.25973 7499 ft 313 kts 32°
2026-05-04 18:23 25.41499 121.27560 7821 ft 319 kts 44°
2026-05-04 18:23 25.42964 121.29365 8009 ft 311 kts 50°
2026-05-04 18:24 25.44324 121.31221 8511 ft 313 kts 51°
2026-05-04 18:24 25.45679 121.33115 8705 ft 315 kts 51°
2026-05-04 18:24 25.47042 121.35024 8843 ft 317 kts 51°
2026-05-04 18:24 25.48410 121.36935 8995 ft 317 kts 51°
2026-05-04 18:25 25.49785 121.38850 9146 ft 317 kts 51°
2026-05-04 18:25 25.51162 121.40768 9274 ft 319 kts 51°
2026-05-04 18:25 25.52543 121.42689 9406 ft 320 kts 51°
2026-05-04 18:25 25.53930 121.44618 9551 ft 320 kts 51°
2026-05-04 18:26 25.55319 121.46550 9690 ft 320 kts 50°
2026-05-04 18:26 25.56702 121.48475 9812 ft 321 kts 50°
2026-05-04 18:26 25.58098 121.50418 9945 ft 322 kts 50°
2026-05-04 18:26 25.59496 121.52363 10059 ft 323 kts 50°
2026-05-04 18:27 25.60901 121.54318 10164 ft 325 kts 50°
2026-05-04 18:27 25.62309 121.56279 10303 ft 326 kts 50°
2026-05-04 18:27 25.63725 121.58248 10406 ft 327 kts 50°
2026-05-04 18:27 25.65144 121.60226 10508 ft 327 kts 50°
2026-05-04 18:28 25.66566 121.62207 10649 ft 328 kts 50°
2026-05-04 18:28 25.67986 121.64187 10751 ft 329 kts 50°
2026-05-04 18:28 25.69413 121.66175 10888 ft 329 kts 50°
2026-05-04 18:28 25.70843 121.68169 11001 ft 330 kts 50°
2026-05-04 18:29 25.72254 121.70137 11122 ft 331 kts 50°
2026-05-04 18:29 25.73687 121.72136 11252 ft 332 kts 50°
2026-05-04 18:29 25.75127 121.74145 11374 ft 333 kts 50°
2026-05-04 18:29 25.76566 121.76155 11497 ft 333 kts 50°
2026-05-04 18:30 25.79502 121.80143 11732 ft 333 kts 43°
2026-05-04 18:30 25.81236 121.81841 11861 ft 332 kts 34°
2026-05-04 18:30 25.83097 121.83365 11987 ft 333 kts 32°
2026-05-04 18:31 25.84950 121.84923 12113 ft 334 kts 34°
2026-05-04 18:31 25.86774 121.86527 12234 ft 335 kts 35°
2026-05-04 18:31 25.88613 121.88135 12360 ft 336 kts 34°
2026-05-04 18:31 25.90469 121.89702 12484 ft 336 kts 33°
2026-05-04 18:32 25.92355 121.91250 12609 ft 337 kts 32°
2026-05-04 18:32 25.94252 121.92788 12746 ft 337 kts 32°
2026-05-04 18:32 25.96147 121.94325 12868 ft 337 kts 32°
2026-05-04 18:32 25.98036 121.95861 12995 ft 337 kts 32°
2026-05-04 18:33 25.99934 121.97402 13130 ft 337 kts 32°
2026-05-04 18:33 26.01869 121.98956 13251 ft 359 kts 31°
2026-05-04 18:33 26.03982 122.00601 13399 ft 381 kts 31°
2026-05-04 18:33 26.06217 122.02329 13513 ft 401 kts 31°
2026-05-04 18:34 26.08548 122.04152 13640 ft 418 kts 31°
2026-05-04 18:34 26.10968 122.06063 13807 ft 432 kts 32°
2026-05-04 18:34 26.13418 122.08003 14367 ft 432 kts 32°
2026-05-04 18:34 26.15883 122.09949 14747 ft 438 kts 31°
2026-05-04 18:35 26.18380 122.11910 15352 ft 438 kts 31°
2026-05-04 18:35 26.20892 122.13877 15770 ft 444 kts 31°
2026-05-04 18:35 26.23431 122.15860 16261 ft 448 kts 31°
2026-05-04 18:35 26.25997 122.17869 16761 ft 452 kts 31°
2026-05-04 18:36 26.28543 122.19866 17239 ft 456 kts 31°
2026-05-04 18:36 26.31152 122.21913 17721 ft 460 kts 31°
2026-05-04 18:36 26.33777 122.23974 18229 ft 464 kts 31°
2026-05-04 18:36 26.36419 122.26051 18688 ft 468 kts 31°
2026-05-04 18:37 26.39106 122.28165 19214 ft 471 kts 31°
2026-05-04 18:37 26.41787 122.30276 19695 ft 475 kts 31°
2026-05-04 18:37 26.44506 122.32416 20184 ft 479 kts 31°
2026-05-04 18:37 26.47235 122.34563 20656 ft 482 kts 31°
2026-05-04 18:38 26.49992 122.36732 21140 ft 486 kts 31°
2026-05-04 18:38 26.52772 122.38922 21611 ft 490 kts 31°
2026-05-04 18:38 26.55571 122.41127 22110 ft 494 kts 31°
2026-05-04 18:38 26.58345 122.43315 22591 ft 497 kts 31°
2026-05-04 18:39 26.61184 122.45559 23058 ft 502 kts 31°
2026-05-04 18:39 26.64048 122.47824 23557 ft 506 kts 31°
2026-05-04 18:39 26.66922 122.50099 23967 ft 509 kts 31°
2026-05-04 18:39 26.69828 122.52397 24376 ft 513 kts 30°
2026-05-04 18:40 26.72753 122.54713 24784 ft 517 kts 30°
2026-05-04 18:40 26.75638 122.56999 25225 ft 521 kts 30°
2026-05-04 18:40 26.78690 122.59413 25436 ft 530 kts 30°
2026-05-04 18:40 26.81744 122.61826 25586 ft 542 kts 30°
2026-05-04 18:41 26.84859 122.64291 25684 ft 553 kts 31°
2026-05-04 18:41 26.88016 122.66799 25883 ft 560 kts 31°
2026-05-04 18:41 26.91192 122.69331 26432 ft 559 kts 31°
2026-05-04 18:41 26.94364 122.71859 26983 ft 560 kts 30°
2026-05-04 18:42 26.97535 122.74384 27517 ft 559 kts 30°
2026-05-04 18:42 27.00714 122.76913 28071 ft 560 kts 30°
2026-05-04 18:42 27.03884 122.79440 28637 ft 560 kts 30°
2026-05-04 18:42 27.07062 122.81979 29213 ft 560 kts 30°
2026-05-04 18:43 27.10232 122.84520 29808 ft 560 kts 30°
2026-05-04 18:43 27.13392 122.87070 30352 ft 560 kts 30°
2026-05-04 18:43 27.16565 122.89641 30845 ft 560 kts 30°
2026-05-04 18:43 27.19723 122.92203 31415 ft 559 kts 30°
2026-05-04 18:44 27.22832 122.94839 31893 ft 562 kts 33°
2026-05-04 18:44 27.23823 122.95738 32090 ft 563 kts 30°
2026-05-04 18:44 27.28805 123.00501 32782 ft 568 kts 36°
2026-05-04 18:44 27.31774 123.03424 33316 ft 567 kts 36°
2026-05-04 18:45 27.34772 123.06306 33799 ft 567 kts 34°
2026-05-04 18:45 27.37788 123.09168 34271 ft 567 kts 34°
2026-05-04 18:45 27.40789 123.12027 34771 ft 565 kts 34°
2026-05-04 18:45 27.43779 123.14891 35312 ft 563 kts 34°
2026-05-04 18:46 27.46752 123.17744 35804 ft 561 kts 34°
2026-05-04 18:46 27.49726 123.20600 36300 ft 559 kts 34°
2026-05-04 18:46 27.52674 123.23437 36757 ft 560 kts 34°
2026-05-04 18:46 27.55645 123.26293 36964 ft 560 kts 34°
2026-05-04 18:47 27.58600 123.29142 37047 ft 560 kts 34°
2026-05-04 18:47 27.64524 123.34854 37125 ft 559 kts 33°
2026-05-04 18:48 27.70443 123.40551 37101 ft 559 kts 34°
2026-05-04 18:48 27.76346 123.46264 37100 ft 559 kts 34°
2026-05-04 18:49 27.82257 123.51973 37102 ft 559 kts 34°
2026-05-04 18:49 27.88134 123.57663 37110 ft 560 kts 34°
2026-05-04 18:50 27.94080 123.63433 37105 ft 560 kts 34°
2026-05-04 18:50 27.99949 123.69145 37089 ft 560 kts 34°
2026-05-04 18:51 28.05861 123.74921 37116 ft 562 kts 34°
2026-05-04 18:51 28.11774 123.80721 37110 ft 562 kts 34°
2026-05-04 18:52 28.17691 123.86507 37105 ft 563 kts 34°
2026-05-04 18:52 28.23621 123.92310 37151 ft 563 kts 33°
2026-05-04 18:53 28.29530 123.98176 37097 ft 568 kts 39°
2026-05-04 18:53 28.34543 124.05203 37130 ft 577 kts 49°
2026-05-04 18:54 28.39373 124.12419 37100 ft 576 kts 47°
2026-05-04 18:54 28.44270 124.19638 37116 ft 578 kts 48°
2026-05-04 18:55 28.49092 124.26968 37112 ft 579 kts 49°
2026-05-04 18:55 28.55490 124.36759 37114 ft 579 kts 49°
2026-05-04 18:56 28.60288 124.44121 37123 ft 579 kts 49°
2026-05-04 18:56 28.65077 124.51476 37109 ft 579 kts 49°
2026-05-04 18:57 28.69879 124.58873 37114 ft 580 kts 49°
2026-05-04 18:57 28.74826 124.66100 37132 ft 572 kts 37°
2026-05-04 18:58 28.77881 124.68838 37070 ft 547 kts 19°
2026-05-04 18:58 28.81213 124.70628 37134 ft 533 kts 12°
2026-05-04 18:58 28.88105 124.73935 37116 ft 540 kts 13°
2026-05-04 18:59 28.95040 124.77227 37124 ft 538 kts 11°
2026-05-04 18:59 29.02066 124.80166 37122 ft 536 kts
2026-05-04 19:00 29.09103 124.83016 37121 ft 536 kts
2026-05-04 19:00 29.16142 124.85850 37160 ft 536 kts
2026-05-04 19:01 29.23128 124.88650 37127 ft 534 kts
2026-05-04 19:01 29.30137 124.91467 37124 ft 533 kts
2026-05-04 19:02 29.37149 124.94277 37123 ft 533 kts
2026-05-04 19:02 29.44146 124.97100 37132 ft 531 kts
2026-05-04 19:03 29.51066 124.99892 37098 ft 531 kts
2026-05-04 19:03 29.58049 125.02705 37120 ft 532 kts
2026-05-04 19:04 29.65033 125.05524 37129 ft 531 kts
2026-05-04 19:04 29.72004 125.08334 37130 ft 530 kts
2026-05-04 19:05 29.78966 125.11141 37129 ft 530 kts
2026-05-04 19:05 29.85933 125.13952 37134 ft 530 kts
2026-05-04 19:06 29.92905 125.16799 37133 ft 531 kts
2026-05-04 19:06 29.99830 125.19585 37129 ft 528 kts
2026-05-04 19:07 30.06865 125.22328 37141 ft 531 kts
2026-05-04 19:07 30.13799 125.25181 37114 ft 532 kts
2026-05-04 19:08 30.20766 125.28034 37131 ft 532 kts
2026-05-04 19:08 30.27749 125.30896 37142 ft 532 kts
2026-05-04 19:09 30.34727 125.33764 37136 ft 533 kts
2026-05-04 19:09 30.41714 125.36640 37135 ft 533 kts
2026-05-04 19:10 30.48712 125.39523 37141 ft 533 kts
2026-05-04 19:10 30.55692 125.42406 37139 ft 534 kts
2026-05-04 19:11 30.62681 125.45297 37188 ft 534 kts
2026-05-04 19:11 30.69705 125.48208 37141 ft 534 kts
2026-05-04 19:12 30.80164 125.52554 37133 ft 534 kts
2026-05-04 19:13 30.87204 125.55484 37134 ft 534 kts
2026-05-04 19:13 30.94173 125.58392 37136 ft 534 kts
2026-05-04 19:14 31.01172 125.61320 37136 ft 534 kts
2026-05-04 19:14 31.08180 125.64253 37138 ft 534 kts
2026-05-04 19:15 31.15175 125.67186 37137 ft 534 kts
2026-05-04 19:15 31.22169 125.70122 37139 ft 534 kts
2026-05-04 19:16 31.29175 125.73070 37150 ft 533 kts
2026-05-04 19:16 31.36101 125.75997 37112 ft 533 kts
2026-05-04 19:17 31.43091 125.78954 37181 ft 534 kts
2026-05-04 19:17 31.50069 125.81914 37145 ft 533 kts
2026-05-04 19:18 31.57041 125.84874 37138 ft 532 kts
2026-05-04 19:18 31.64006 125.87845 37174 ft 533 kts 10°
2026-05-04 19:19 31.70961 125.90817 37138 ft 531 kts 10°
2026-05-04 19:19 31.77909 125.93746 37141 ft 531 kts
2026-05-04 19:20 31.84869 125.96703 37161 ft 531 kts 10°
2026-05-04 19:20 31.91810 125.99647 37136 ft 530 kts 10°
2026-05-04 19:21 31.98697 126.02560 37136 ft 530 kts 10°
2026-05-04 19:21 32.05635 126.05498 37140 ft 529 kts 11°
2026-05-04 19:22 32.12562 126.08425 37136 ft 528 kts 11°
2026-05-04 19:22 32.19477 126.11379 37138 ft 529 kts 11°
2026-05-04 19:23 32.26392 126.14323 37142 ft 527 kts 11°
2026-05-04 19:23 32.33290 126.17239 37138 ft 526 kts 11°
2026-05-04 19:24 32.40193 126.20163 37136 ft 526 kts 11°
2026-05-04 19:24 32.47030 126.23095 37140 ft 525 kts 11°
2026-05-04 19:25 32.53886 126.26025 37127 ft 524 kts 11°
2026-05-04 19:25 32.60767 126.28969 37174 ft 526 kts 12°
2026-05-04 19:26 32.67642 126.31930 37138 ft 524 kts 12°
2026-05-04 19:26 32.74500 126.34892 37132 ft 524 kts 12°
2026-05-04 19:27 32.81359 126.37830 37155 ft 524 kts 12°
2026-05-04 19:27 32.88216 126.40786 37133 ft 523 kts 12°
2026-05-04 19:28 32.95051 126.43752 37135 ft 523 kts 12°
2026-05-04 19:28 33.01846 126.46684 37131 ft 523 kts 12°
2026-05-04 19:29 33.08698 126.49638 37133 ft 523 kts 12°
2026-05-04 19:29 33.15542 126.52589 37132 ft 524 kts 11°
2026-05-04 19:30 33.22407 126.55527 37141 ft 523 kts 12°
2026-05-04 19:30 33.29241 126.58503 37131 ft 523 kts 12°
2026-05-04 19:31 33.36086 126.61467 37154 ft 523 kts 12°
2026-05-04 19:31 33.42914 126.64439 37132 ft 522 kts 12°
2026-05-04 19:32 33.49738 126.67414 37129 ft 522 kts 12°
2026-05-04 19:32 33.56644 126.69575 37140 ft 503 kts 358°
2026-05-04 19:33 33.63548 126.70365 37132 ft 502 kts 358°
2026-05-04 19:33 33.70499 126.71332 37131 ft 503 kts 358°
2026-05-04 19:34 33.77457 126.72154 37140 ft 501 kts 357°
2026-05-04 19:34 33.84398 126.72899 37131 ft 500 kts 357°
2026-05-04 19:35 33.91323 126.73634 37133 ft 500 kts 357°
2026-05-04 19:35 33.98259 126.74358 37140 ft 500 kts 357°
2026-05-04 19:36 34.05175 126.75078 37127 ft 499 kts 357°
2026-05-04 19:36 34.12067 126.75800 37133 ft 500 kts 357°
2026-05-04 19:37 34.19000 126.76540 37139 ft 499 kts 358°
2026-05-04 19:37 34.25912 126.77189 37136 ft 497 kts 356°
2026-05-04 19:38 34.32831 126.77837 37134 ft 499 kts 358°
2026-05-04 19:38 34.39744 126.78596 37140 ft 498 kts 358°
2026-05-04 19:39 34.46640 126.79332 37135 ft 498 kts 358°
2026-05-04 19:39 34.53543 126.80073 37135 ft 498 kts 358°
2026-05-04 19:40 34.60442 126.80817 37145 ft 497 kts 358°
2026-05-04 19:40 34.67333 126.81563 37138 ft 496 kts 358°
2026-05-04 19:41 34.74176 126.82304 37141 ft 496 kts 358°
2026-05-04 19:41 34.81059 126.83050 37139 ft 496 kts 358°
2026-05-04 19:42 34.87925 126.83795 37135 ft 495 kts 358°
2026-05-04 19:42 34.94795 126.84543 37138 ft 496 kts 358°
2026-05-04 19:43 35.01664 126.85295 37138 ft 495 kts 358°
2026-05-04 19:43 35.08529 126.86051 37136 ft 495 kts 358°
2026-05-04 19:44 35.15390 126.86807 37169 ft 495 kts 359°
2026-05-04 19:44 35.22251 126.87602 37142 ft 494 kts 359°
2026-05-04 19:45 35.29109 126.88363 37142 ft 494 kts 358°
2026-05-04 19:45 35.35907 126.89106 37149 ft 494 kts 359°
2026-05-04 19:46 35.42750 126.89832 37136 ft 493 kts 358°
2026-05-04 19:46 35.49579 126.90600 37138 ft 493 kts 359°
2026-05-04 19:47 35.56415 126.91360 37146 ft 493 kts 359°
2026-05-04 19:47 35.63238 126.92093 37136 ft 492 kts 359°
2026-05-04 19:48 35.68902 126.92723 37133 ft 492 kts 359°
2026-05-04 19:48 35.75718 126.93461 37136 ft 491 kts 359°
2026-05-04 19:49 35.82531 126.94210 37132 ft 491 kts 359°
2026-05-04 19:49 35.89339 126.94945 37129 ft 491 kts 359°
2026-05-04 19:50 35.96115 126.95690 37133 ft 490 kts 359°
2026-05-04 19:50 36.02896 126.96438 37127 ft 489 kts 359°
2026-05-04 19:51 36.09679 126.97179 37117 ft 489 kts 359°
2026-05-04 19:51 36.16459 126.97948 37119 ft 488 kts 359°
2026-05-04 19:52 36.23227 126.98716 37116 ft 487 kts 359°
2026-05-04 19:52 36.29935 126.99459 37107 ft 487 kts 359°
2026-05-04 19:53 36.36696 127.00181 37101 ft 486 kts 358°
2026-05-04 19:53 36.43414 127.00197 37120 ft 481 kts 352°
2026-05-04 19:54 36.50102 126.99937 37098 ft 482 kts 353°
2026-05-04 19:54 36.56808 126.99742 37097 ft 480 kts 353°
2026-05-04 19:55 36.63475 126.99512 37088 ft 480 kts 353°
2026-05-04 19:55 36.70189 126.99795 36813 ft 492 kts
2026-05-04 19:55 36.73400 127.01286 36148 ft 495 kts 26°
2026-05-04 19:56 36.76237 127.03703 35544 ft 490 kts 34°
2026-05-04 19:56 36.78869 127.06346 34997 ft 487 kts 35°
2026-05-04 19:56 36.81509 127.09014 34450 ft 486 kts 35°
2026-05-04 19:56 36.84126 127.11685 33861 ft 486 kts 36°
2026-05-04 19:57 36.86696 127.14411 33238 ft 485 kts 38°
2026-05-04 19:57 36.89227 127.17207 32625 ft 485 kts 39°
2026-05-04 19:57 36.91722 127.20030 32005 ft 485 kts 40°
2026-05-04 19:57 36.94216 127.22880 31437 ft 484 kts 40°
2026-05-04 19:58 36.96696 127.25726 30848 ft 485 kts 40°
2026-05-04 19:58 36.99149 127.28548 30300 ft 485 kts 40°
2026-05-04 19:58 37.01658 127.31440 29661 ft 483 kts 41°
2026-05-04 19:58 37.04088 127.34253 29019 ft 482 kts 41°
2026-05-04 19:59 37.06550 127.37112 28391 ft 482 kts 41°
2026-05-04 19:59 37.09058 127.39896 27759 ft 482 kts 36°
2026-05-04 19:59 37.11932 127.42009 27072 ft 478 kts 19°
2026-05-04 19:59 37.15140 127.43062 26472 ft 476 kts
2026-05-04 20:00 37.18439 127.43499 25942 ft 477 kts
2026-05-04 20:00 37.21756 127.43761 25384 ft 479 kts 359°
2026-05-04 20:00 37.25065 127.43408 24786 ft 474 kts 345°
2026-05-04 20:00 37.28052 127.41967 24224 ft 448 kts 327°
2026-05-04 20:01 37.30398 127.39570 23746 ft 424 kts 309°
2026-05-04 20:01 37.31947 127.36515 22945 ft 416 kts 291°
2026-05-04 20:01 37.32703 127.33041 21919 ft 408 kts 279°
2026-05-04 20:01 37.33195 127.29550 20923 ft 404 kts 283°
2026-05-04 20:02 37.34055 127.26224 19918 ft 399 kts 294°
2026-05-04 20:02 37.35315 127.23145 18976 ft 392 kts 296°
2026-05-04 20:02 37.36311 127.19975 17959 ft 388 kts 285°
2026-05-04 20:02 37.36881 127.16699 16929 ft 382 kts 279°
2026-05-04 20:03 37.37318 127.13430 15906 ft 376 kts 279°
2026-05-04 20:03 37.37813 127.10228 14933 ft 371 kts 281°
2026-05-04 20:03 37.38416 127.07081 13967 ft 366 kts 283°
2026-05-04 20:03 37.39059 127.04015 12942 ft 361 kts 283°
2026-05-04 20:04 37.39693 127.00977 11927 ft 356 kts 283°
2026-05-04 20:04 37.40297 126.98017 10958 ft 352 kts 283°
2026-05-04 20:04 37.40903 126.95034 9998 ft 347 kts 284°
2026-05-04 20:04 37.41509 126.92137 8955 ft 343 kts 284°
2026-05-04 20:05 37.42075 126.89205 7911 ft 338 kts 282°
2026-05-04 20:05 37.42583 126.86387 6945 ft 333 kts 283°
2026-05-04 20:05 37.43388 126.83691 5889 ft 330 kts 300°
2026-05-04 20:05 37.44808 126.81451 5108 ft 320 kts 309°
2026-05-04 20:06 37.46054 126.79294 4989 ft 290 kts 298°
2026-05-04 20:06 37.46842 126.77106 5181 ft 273 kts 284°
2026-05-04 20:06 37.47205 126.74611 5532 ft 305 kts 278°
2026-05-04 20:06 37.47583 126.71846 5741 ft 329 kts 281°
2026-05-04 20:07 37.48109 126.69194 5689 ft 297 kts 281°
2026-05-04 20:07 37.48161 126.66732 5603 ft 269 kts 255°
2026-05-04 20:07 37.47416 126.64675 5604 ft 256 kts 240°
2026-05-04 20:07 37.46852 126.62613 6101 ft 270 kts 266°
2026-05-04 20:08 37.47198 126.60258 7049 ft 280 kts 295°
2026-05-04 20:08 37.48361 126.58462 8203 ft 255 kts 319°
2026-05-04 20:08 37.49836 126.57221 8734 ft 256 kts 328°
2026-05-04 20:08 37.51410 126.56138 8287 ft 260 kts 329°
2026-05-04 20:09 37.53042 126.55005 7335 ft 276 kts 334°
2026-05-04 20:09 37.54946 126.54397 6229 ft 296 kts 354°
2026-05-04 20:09 37.57056 126.54725 5033 ft 313 kts 18°
2026-05-04 20:09 37.58941 126.56158 3869 ft 324 kts 43°
2026-05-04 20:10 37.60203 126.58478 3008 ft 320 kts 66°
2026-05-04 20:10 37.61190 126.60890 2751 ft 297 kts 54°
2026-05-04 20:10 37.62390 126.62802 2950 ft 263 kts 47°
2026-05-04 20:10 37.63557 126.64413 3108 ft 236 kts 45°
2026-05-04 20:11 37.64539 126.65995 2916 ft 227 kts 66°
2026-05-04 20:11 37.64707 126.66568 2836 ft 226 kts 76°
2026-05-04 20:11 37.64708 126.66574 2836 ft 226 kts 76°
2026-05-04 20:12 37.64812 126.68464 2920 ft 214 kts 106°
2026-05-04 20:12 37.64336 126.70196 3267 ft 210 kts 114°
2026-05-04 20:12 37.63698 126.71774 3399 ft 199 kts 130°
2026-05-04 20:12 37.62747 126.72975 3540 ft 190 kts 152°
2026-05-04 20:13 37.61548 126.73550 3518 ft 182 kts 175°
2026-05-04 20:13 37.60327 126.73333 3446 ft 175 kts 201°
2026-05-04 20:13 37.59211 126.72748 3385 ft 175 kts 208°
2026-05-04 20:13 37.58099 126.72083 3303 ft 177 kts 209°
2026-05-04 20:14 37.57050 126.71314 3173 ft 176 kts 225°
2026-05-04 20:14 37.56555 126.69967 2980 ft 175 kts 264°
2026-05-04 20:14 37.56874 126.68489 2929 ft 179 kts 293°
2026-05-04 20:14 37.57534 126.67153 2948 ft 180 kts 300°
2026-05-04 20:15 37.58046 126.65752 2909 ft 176 kts 281°
2026-05-04 20:15 37.58291 126.64249 2922 ft 176 kts 280°
2026-05-04 20:15 37.58603 126.62756 2905 ft 176 kts 283°
2026-05-04 20:15 37.58975 126.61290 2895 ft 176 kts 286°
2026-05-04 20:16 37.59413 126.59845 2887 ft 176 kts 289°
2026-05-04 20:16 37.59901 126.58423 2885 ft 176 kts 291°
2026-05-04 20:16 37.60641 126.57193 2833 ft 184 kts 321°
2026-05-04 20:16 37.61899 126.56803 2825 ft 195 kts
2026-05-04 20:17 37.63151 126.57478 2853 ft 201 kts 33°
2026-05-04 20:17 37.64210 126.58650 2911 ft 203 kts 42°
2026-05-04 20:17 37.65200 126.59901 2906 ft 203 kts 44°
2026-05-04 20:17 37.66098 126.61293 2854 ft 204 kts 63°
2026-05-04 20:18 37.66349 126.63007 2846 ft 203 kts 94°
2026-05-04 20:18 37.65887 126.64653 2858 ft 198 kts 125°
2026-05-04 20:18 37.65075 126.66044 2907 ft 196 kts 133°
2026-05-04 20:18 37.64201 126.67363 2906 ft 195 kts 135°
2026-05-04 20:19 37.63384 126.68736 2891 ft 197 kts 128°
2026-05-04 20:19 37.62635 126.70188 2834 ft 199 kts 127°
2026-05-04 20:19 37.61832 126.71672 2000 ft 216 kts 131°
2026-05-04 20:19 37.60988 126.72890 1250 ft 219 kts 136°
2026-05-04 20:20 37.60722 126.73220 1061 ft 209 kts 138°
2026-05-04 20:20 37.59773 126.74330 556 ft 171 kts 136°
2026-05-04 20:21 37.58993 126.75355 332 ft 157 kts 132°
2026-05-04 20:21 37.58251 126.76340 155 ft 152 kts 134°
2026-05-04 20:21 37.56734 126.78234 67 ft 145 kts 136°
2026-05-04 20:22 37.56140 126.79000 66 ft 98 kts 135°
2026-05-04 20:22 37.55723 126.79523 63 ft 74 kts 134°
2026-05-04 20:22 37.55529 126.79773 63 ft 0 kts 134°
2026-05-04 20:23 37.55513 126.79796 60 ft 7 kts 129°
2026-05-04 20:23 37.55475 126.79874 59 ft 13 kts 112°
2026-05-04 20:24 37.55438 126.79997 66 ft 16 kts 104°
2026-05-04 20:24 37.55447 126.80138 60 ft 17 kts 60°
2026-05-04 20:24 37.55532 126.80258 65 ft 16 kts 45°
2026-05-04 20:24 37.55549 126.80280 66 ft 3 kts 45°
2026-05-04 20:25 37.55578 126.80316 65 ft 8 kts 40°
2026-05-04 20:25 37.55638 126.80296 62 ft 12 kts 309°
2026-05-04 20:25 37.55693 126.80242 67 ft 10 kts
2026-05-04 20:25 37.55732 126.80290 70 ft 1 kts 62°
2026-05-04 20:26 37.55741 126.80304 65 ft 2 kts 51°
2026-05-04 20:26 37.55751 126.80318 71 ft 0 kts 46°
2026-05-04 20:26 37.55755 126.80324 70 ft 1 kts 46°